Location: Herm
(49.4830°N, 2.4500°W)
Time: 21:07:39
(UTC+00:00)

NOAA 15 - Pass Details

Date: 05 November 2021
Orbit: 797 x 812 km, 98.7° (Epoch: 27 November)

Event Time Altitude Azimuth Distance (km) Brightness Sun altitude
Rises 19:41:02 0° 189° (S) 3,322 7.8 -29.4°
Reaches altitude 10° 19:43:34 10° 198° (SSW) 2,396 7.1 -29.8°
Maximum altitude 19:48:24 35° 264° (W) 1,292 6.1 -30.6°
Drops below altitude 10° 19:53:16 10° 330° (NNW) 2,411 7.5 -31.4°
Sets 19:55:49 0° 339° (NNW) 3,347 8.2 -31.8°
